Location: Fort Worth, Tx
(32.7431°N, 97.3695°W)
Time: 14:36:14
(UTC-04:00)

Tiros 1 - Pass Details

Date: 26 February 2024
Orbit: 625 x 657 km, 48.4° (Epoch: 11 April)

Event Time Altitude Azimuth Distance (km) Brightness Sun altitude
Rises 22:17:04 0° 263° (W) 2,965 11.4 -36.9°
Reaches altitude 10° 22:19:43 10° 275° (W) 2,059 10.4 -37.4°
Enters shadow 22:21:09 17° 288° (WNW) 1,642 9.8 -37.7°
